Location: Napier
(39.4830°S, 176.9170°E)
Time: 15:46:05
(UTC+13:00)

Cosmos 1745 Rocket - Pass Details

Date: 24 January 2019
Orbit: 953 x 997 km, 83.0° (Epoch: 18 February)

Event Time Altitude Azimuth Distance (km) Brightness Sun altitude
Exits shadow 23:05:13 24° 340° (NNW) 1,939 5.2 -22.9°
Maximum altitude 23:09:14 69° 261° (W) 1,073 4.3 -23.4°
Drops below altitude 10° 23:15:36 10° 178° (S) 2,779 7.1 -24.0°
Sets 23:18:10 0° 175° (S) 3,729 7.8 -24.3°
